timestamp,surface_pressure_avg,surface_temp_avg,battery_voltage,lat,long
2023-09-02 00:09:00+00:00,365.4646,18.5,12.25,47.84626,-54.09684
2023-09-02 00:19:00+00:00,359.7365,18.42,12.17,47.84626,-54.09684
2023-09-02 00:29:00+00:00,370.8196,18.5,12.17,47.84626,-54.09684
2023-09-02 00:39:00+00:00,382.1613,18.4,12.17,47.84626,-54.09684
2023-09-02 00:49:00+00:00,378.6313,18.4,12.17,47.84626,-54.09684
2023-09-02 00:59:00+00:00,369.3929,18.42,12.17,47.84626,-54.09684
2023-09-02 01:09:00+00:00,378.5579,18.4,12.17,47.84626,-54.09684
2023-09-02 01:19:00+00:00,385.383,18.4,12.17,47.84626,-54.09684
2023-09-02 01:29:00+00:00,377.1595,18.4,12.17,47.84626,-54.09684
2023-09-02 01:39:00+00:00,378.2763,18.4,12.17,47.84626,-54.09684
2023-09-02 01:49:00+00:00,374.4012,18.38,12.17,47.84626,-54.09684
2023-09-02 01:59:00+00:00,366.7229,18.36,12.17,47.84626,-54.09684
2023-09-02 02:09:00+00:00,368.3529,18.3,12.17,47.84626,-54.09684
2023-09-02 02:19:00+00:00,367.5262,18.3,12.17,47.84626,-54.09684
2023-09-02 02:29:00+00:00,353.7913,18.36,12.17,47.84626,-54.09684
2023-09-02 02:39:00+00:00,336.798,18.39,12.17,47.84626,-54.09684
2023-09-02 02:49:00+00:00,334.6230000000001,18.4,12.17,47.84626,-54.09684
2023-09-02 02:59:00+00:00,338.8830000000001,18.37,12.17,47.84626,-54.09684
2023-09-02 03:09:00+00:00,331.2213,18.42,12.17,47.84626,-54.09684
2023-09-02 03:19:00+00:00,310.7347,18.51,12.17,47.84626,-54.09684
2023-09-02 03:29:00+00:00,297.1647,18.59,12.17,47.84626,-54.09684
2023-09-02 03:39:00+00:00,293.953,18.6,12.17,47.84626,-54.09684
2023-09-02 03:49:00+00:00,283.1481,18.61,12.17,47.84626,-54.09684
2023-09-02 03:59:00+00:00,266.6881,18.75,12.17,47.84626,-54.09684
2023-09-02 04:09:00+00:00,261.7398,18.8,12.17,47.84626,-54.09684
2023-09-02 04:19:00+00:00,251.2131,18.8,12.09,47.84626,-54.09684
2023-09-02 04:29:00+00:00,232.7597,18.8,12.09,47.84626,-54.09684
2023-09-02 04:39:00+00:00,220.8047,18.8,12.09,47.84626,-54.09684
2023-09-02 04:49:00+00:00,213.0698,18.8,12.09,47.84626,-54.09684
2023-09-02 04:59:00+00:00,201.1098,18.69,12.09,47.84626,-54.09684
2023-09-02 05:09:00+00:00,188.1098,18.69,12.09,47.84626,-54.09684
2023-09-02 05:19:00+00:00,180.5682,18.7,12.09,47.84626,-54.09684
2023-09-02 05:29:00+00:00,174.3598,18.6,12.09,47.84626,-54.09684
2023-09-02 05:39:00+00:00,165.7281,18.7,12.09,47.84626,-54.09684
2023-09-02 05:49:00+00:00,161.6115,18.7,12.09,47.84626,-54.09684
2023-09-02 05:59:00+00:00,157.2532,18.7,12.09,47.84626,-54.09684
2023-09-02 06:09:00+00:00,148.8415,18.51,12.09,47.84626,-54.09684
2023-09-02 06:19:00+00:00,150.6965,18.59,12.09,47.84626,-54.09684
2023-09-02 06:29:00+00:00,150.8865,18.6,12.09,47.84626,-54.09684
2023-09-02 06:39:00+00:00,145.1232,18.59,12.09,47.84626,-54.09684
2023-09-02 06:49:00+00:00,144.6465,18.45,12.09,47.84626,-54.09684
2023-09-02 06:59:00+00:00,148.4265,18.3,12.09,47.84626,-54.09684
2023-09-02 07:09:00+00:00,155.2832,18.33,12.09,47.84626,-54.09684
2023-09-02 07:19:00+00:00,158.0282,18.46,12.09,47.84626,-54.09684
2023-09-02 07:29:00+00:00,159.3281,18.5,12.09,47.84626,-54.09684
2023-09-02 07:39:00+00:00,169.5598,18.57,12.09,47.84626,-54.09684
2023-09-02 07:49:00+00:00,176.8549,18.59,12.09,47.84626,-54.09684
2023-09-02 07:59:00+00:00,173.9265,18.58,12.09,47.84626,-54.09684
2023-09-02 08:09:00+00:00,174.6564,18.6,12.09,47.84626,-54.09684
2023-09-02 08:19:00+00:00,187.7265,18.6,12.09,47.84626,-54.09684
2023-09-02 08:29:00+00:00,196.1532,18.66,12.09,47.84626,-54.09684
2023-09-02 08:39:00+00:00,193.0265,18.66,12.09,47.84626,-54.09684
2023-09-02 08:49:00+00:00,195.3448,18.7,12.09,47.84626,-54.09684
2023-09-02 08:59:00+00:00,206.5264,18.7,12.09,47.84626,-54.09684
2023-09-02 09:09:00+00:00,215.0248,18.75,12.09,47.84626,-54.09684
2023-09-02 09:19:00+00:00,217.0214,18.7,12.09,47.84626,-54.09684
2023-09-02 09:29:00+00:00,224.9431,18.76,12.09,47.84626,-54.09684
2023-09-02 09:39:00+00:00,227.4715,18.7,12.09,47.84626,-54.09684
2023-09-02 09:49:00+00:00,226.7898,18.7,12.09,47.84626,-54.09684
2023-09-02 09:59:00+00:00,233.8098,18.72,12.09,47.84626,-54.09684
2023-09-02 10:09:00+00:00,239.9548,18.7,12.09,47.84626,-54.09684
2023-09-02 10:19:00+00:00,238.8181,18.7,12.17,47.84626,-54.09684
2023-09-02 10:29:00+00:00,245.9415,18.76,12.17,47.84626,-54.09684
2023-09-02 10:39:00+00:00,255.7265,18.77,12.17,47.84626,-54.09684
2023-09-02 10:49:00+00:00,258.9181,18.7,12.17,47.84626,-54.09684
2023-09-02 10:59:00+00:00,262.7881,18.7,12.17,47.84626,-54.09684
2023-09-02 11:09:00+00:00,280.3797,18.7,12.17,47.84626,-54.09684
2023-09-02 11:19:00+00:00,299.1531,18.6,12.49,47.84626,-54.09684
2023-09-02 11:29:00+00:00,303.6814,18.59,12.49,47.84626,-54.09684
2023-09-02 11:39:00+00:00,307.7847,18.6,12.49,47.84626,-54.09684
2023-09-02 11:49:00+00:00,325.1513,18.6,12.49,47.84626,-54.09684
2023-09-02 11:59:00+00:00,333.2445,18.57,12.49,47.84626,-54.09684
2023-09-02 12:09:00+00:00,336.1964,18.56,12.49,47.84626,-54.09684
2023-09-02 12:19:00+00:00,342.2047,18.5,12.65,47.84626,-54.09684
2023-09-02 12:29:00+00:00,362.1429,18.49,12.65,47.84626,-54.09684
2023-09-02 12:39:00+00:00,363.3862,18.5,12.65,47.84626,-54.09684
2023-09-02 12:49:00+00:00,355.6713,18.57,12.65,47.84626,-54.09684
2023-09-02 12:59:00+00:00,365.6462,18.6,12.65,47.84626,-54.09684
2023-09-02 13:09:00+00:00,377.5562,18.5,12.65,47.84626,-54.09684
2023-09-02 13:19:00+00:00,366.3847,18.6,12.65,47.84626,-54.09684
2023-09-02 13:29:00+00:00,363.0579,18.55,12.65,47.84626,-54.09684
2023-09-02 13:39:00+00:00,376.3912,18.5,12.65,47.84626,-54.09684
2023-09-02 13:49:00+00:00,369.7963,18.5,12.65,47.84626,-54.09684
2023-09-02 13:59:00+00:00,350.408,18.4,12.65,47.84626,-54.09684
2023-09-02 14:09:00+00:00,352.3929,18.4,12.65,47.84626,-54.09684
2023-09-02 14:19:01+00:00,357.8864,18.4,12.65,47.84626,-54.09684
2023-09-02 14:29:01+00:00,346.6696,18.43,12.65,47.84626,-54.09684
2023-09-02 14:39:01+00:00,336.1196,18.49,12.65,47.84626,-54.09684
2023-09-02 14:49:01+00:00,342.3129,18.47,12.65,47.84626,-54.09684
2023-09-02 14:59:01+00:00,341.9129,18.49,12.65,47.84626,-54.09684
2023-09-02 15:09:01+00:00,326.0247,18.6,12.65,47.84626,-54.09684
2023-09-02 15:19:00+00:00,318.213,18.7,12.65,47.84626,-54.09684
2023-09-02 15:29:00+00:00,320.0897,18.7,12.65,47.84626,-54.09684
2023-09-02 15:39:00+00:00,316.018,18.7,12.65,47.84626,-54.09684
2023-09-02 15:49:00+00:00,304.0081,18.7,12.65,47.84626,-54.09684
2023-09-02 15:59:00+00:00,288.5764,18.8,12.65,47.84626,-54.09684
2023-09-02 16:09:00+00:00,284.8198,18.8,12.65,47.84626,-54.09684
2023-09-02 16:19:01+00:00,277.738,18.8,12.65,47.84626,-54.09684
2023-09-02 16:29:01+00:00,264.3697,18.8,12.65,47.84626,-54.09684
2023-09-02 16:39:01+00:00,254.7231,18.8,12.65,47.84626,-54.09684
2023-09-02 16:49:01+00:00,247.8448,18.8,12.65,47.84626,-54.09684
2023-09-02 16:59:01+00:00,236.2914,18.8,12.65,47.84626,-54.09684
2023-09-02 17:09:01+00:00,223.1731,18.81,12.65,47.84626,-54.09684
2023-09-02 17:19:01+00:00,213.4815,18.87,12.57,47.84626,-54.09684
2023-09-02 17:29:01+00:00,202.4565,18.9,12.57,47.84626,-54.09684
2023-09-02 17:39:01+00:00,188.9148,18.9,12.57,47.84626,-54.09684
2023-09-02 17:49:01+00:00,180.7881,18.9,12.57,47.84626,-54.09684
2023-09-02 17:59:01+00:00,176.1331,18.9,12.57,47.84626,-54.09684
2023-09-02 18:09:01+00:00,168.3248,18.92,12.57,47.84626,-54.09684
2023-09-02 18:19:00+00:00,160.5182,18.96,12.49,47.84626,-54.09684
2023-09-02 18:29:00+00:00,154.9665,18.98,12.49,47.84626,-54.09684
2023-09-02 18:39:00+00:00,148.4099,19.0,12.49,47.84626,-54.09684
2023-09-02 18:49:00+00:00,145.1565,19.0,12.49,47.84626,-54.09684
2023-09-02 18:59:00+00:00,150.6232,19.0,12.49,47.84626,-54.09684
2023-09-02 19:09:00+00:00,156.3715,19.0,12.49,47.84626,-54.09684
2023-09-02 19:19:00+00:00,147.9115,19.0,12.41,47.84626,-54.09684
2023-09-02 19:29:00+00:00,144.0931,19.05,12.41,47.84626,-54.09684
2023-09-02 19:39:00+00:00,154.8782,19.08,12.41,47.84626,-54.09684
2023-09-02 19:49:00+00:00,157.3115,19.05,12.41,47.84626,-54.09684
2023-09-02 19:59:00+00:00,155.1415,19.1,12.41,47.84626,-54.09684
2023-09-02 20:09:00+00:00,157.2682,19.1,12.41,47.84626,-54.09684
2023-09-02 20:19:01+00:00,162.5248,19.1,12.33,47.84626,-54.09684
2023-09-02 20:29:01+00:00,166.8315,19.1,12.33,47.84626,-54.09684
2023-09-02 20:39:01+00:00,171.8698,19.06,12.33,47.84626,-54.09684
2023-09-02 20:49:01+00:00,179.1848,19.0,12.33,47.84626,-54.09684
2023-09-02 20:59:01+00:00,184.7181,19.0,12.33,47.84626,-54.09684
2023-09-02 21:09:01+00:00,191.3331,19.0,12.33,47.84626,-54.09684
2023-09-02 21:19:00+00:00,197.8198,19.0,12.33,47.84626,-54.09684
2023-09-02 21:29:00+00:00,206.9648,19.0,12.33,47.84626,-54.09684
2023-09-02 21:39:00+00:00,210.4497,19.0,12.33,47.84626,-54.09684
2023-09-02 21:49:00+00:00,204.9564,19.05,12.33,47.84626,-54.09684
2023-09-02 21:59:00+00:00,210.7748,19.09,12.33,47.84626,-54.09684
2023-09-02 22:09:00+00:00,227.3681,19.1,12.33,47.84626,-54.09684
2023-09-02 22:19:00+00:00,229.0781,19.1,12.33,47.84626,-54.09684
2023-09-02 22:29:00+00:00,228.6698,19.07,12.33,47.84626,-54.09684
2023-09-02 22:39:00+00:00,238.7964,19.0,12.33,47.84626,-54.09684
2023-09-02 22:49:00+00:00,248.4031,19.0,12.33,47.84626,-54.09684
2023-09-02 22:59:00+00:00,253.5281,19.0,12.33,47.84626,-54.09684
2023-09-02 23:09:00+00:00,265.5147,19.0,12.33,47.84626,-54.09684
2023-09-02 23:19:00+00:00,279.1863,19.0,12.33,47.84626,-54.09684
2023-09-02 23:29:00+00:00,287.1647,19.0,12.33,47.84626,-54.09684
2023-09-02 23:39:00+00:00,290.348,18.9,12.33,47.84626,-54.09684
2023-09-02 23:49:00+00:00,303.738,18.9,12.33,47.84626,-54.09684
2023-09-02 23:59:00+00:00,317.7629,18.9,12.33,47.84626,-54.09684
